Regional Weather Roundup
Issued by NWS

Home | Current Version | Previous Version | Text Only | Print | Product List | Glossary On
Versions: 1 2 3 4 5 6 7 8 9 10 11 12 13 14 15 16 17 18 19 20 21 22 23 24 25 26 27 28 29 30 31 32 33 34 35 36 37 38 39 40 41 42 43 44 45 46 47 48 49 50
000
ASPQ40 PGUM 251712
RWRPQ
WEATHER ROUNDUP FOR THE MARIANAS AND MICRONESIA
NATIONAL WEATHER SERVICE TIYAN GU
300 AM CHST SUN MAR 26 2017

GUZ001>004-251800-
MARIANA ISLANDS-

CITY           SKY/WX    TMP DP  RH WIND       PRES   REMARKS
GUAM AIRPORT   CLEAR     75  73  94 NE5       29.94F
ANDERSEN AFB   PTCLDY    77  72  83 E8        29.95F
ROTA AIRPORT   NOT AVBL
TINIAN AP      NOT AVBL
SAIPAN AP      PTCLDY    77  72  83 E6        29.95F

$$

PMZ161-251800-
REPUBLIC OF PALAU-

CITY           SKY/WX    TMP DP  RH WIND       PRES   REMARKS
KOROR AP       MOCLDY    81  75  83 NE9       29.84F
KOROR WSO      CLOUDY    81  75  83 N7        29.85F

$$

PMZ171>174-251800-
FEDERATED STATES OF MICRONESIA-

CITY           SKY/WX    TMP DP  RH WIND       PRES   REMARKS
YAP AIRPORT    CLOUDY    79  75  89 E8        29.86F
CHUUK AP       CLOUDY    82  77  83 NE9       29.81F HX  91
POHNPEI AP     CLOUDY    82  77  83 N12       29.83F HX  91
POHNPEI WSO    NOT AVBL
KOSRAE AP      CLOUDY    82  75  78 NE6       29.81S

$$

PMZ181-251800-
REPUBLIC OF THE MARSHALL ISLANDS-

CITY           SKY/WX    TMP DP  RH WIND       PRES   REMARKS
KWAJALEIN AP   CLEAR     81  73  78 E15       29.86R
MAJURO AP      NOT AVBL
MAJURO WSO     MOCLDY    82  73  74 NE17      29.82S

$$




USA.gov is the U.S. government's official web portal to all federal, state and local government web resources and services.